Helicity
20 25 52 29 19 16 12 -1 -7 -8 -8 -5 -2 -3 -27 -24 -1 2 3 11 13 19 22 27 29 35 36 42 38 41 40 40 41
16 40 44 18 10 9 7 -3 -8 -6 -1 1 -1 -13 -42 -5 0 3 7 11 17 21 24 25 27 32 31 35 39 44 43 46 42
27 40 24 15 9 1 -3 -7 -5 0 5 3 -1 -15 -31 -7 -1 2 2 2 11 17 20 23 24 29 30 38 40 38 39 43 42
11 28 17 5 -4 -7 -9 0 1 6 10 4 -1 -15 -25 -4 -12 -8 -6 -3 11 16 20 23 31 33 32 38 36 36 38 45 38
-9 21 9 2 -1 -5 -6 2 3 4 4 1 -4 -17 -49 -4 -8 -5 -3 4 9 12 16 21 29 28 31 32 31 39 39 40 38
-5 -7 -2 1 -2 -10 -11 -1 4 3 -3 -6 -18 -41 -16 -9 -7 -1 -2 9 11 13 16 20 21 24 33 36 33 36 38 43 40
-26 -22 -4 -7 -13 -7 -1 5 4 -30 -18 -20 -31 -16 -9 -3 1 13 5 17 18 19 21 22 24 25 30 30 31 28 29 34 34
-32 -22 -29 -39 -43 -26 -18 -13 -23 -13 -12 -14 -15 -10 -1 3 7 26 2 22 26 27 26 26 24 23 26 30 23 20 26 29 28
-36 -44 -61 -58 -54 -33 -28 -30 -17 -9 -4 2 1 -4 4 8 11 35 8 14 28 31 32 30 27 22 19 22 26 27 26 26 30
-55 -70 -66 -55 -38 -32 -23 -17 -9 -5 1 5 7 12 12 14 20 27 35 13 20 33 35 32 34 29 23 26 32 36 29 29 32
-53 -48 -42 -31 -25 -13 -10 -4 1 5 3 11 18 26 31 29 31 32 48 33 21 18 24 30 34 31 25 27 32 37 41 36 38
-24 -18 -13 -5 2 9 13 14 11 13 17 17 22 28 36 42 43 47 45 64 39 19 5 23 28 32 29 35 28 31 37 45 49
8 10 13 21 24 24 23 24 23 23 23 29 32 34 41 39 48 54 60 60 58 61 26 19 18 16 9 10 14 26 26 31 50
32 34 32 32 35 38 42 40 37 44 45 48 47 49 53 55 56 52 59 64 64 58 84 49 33 34 28 8 13 14 30 35 49
45 47 40 44 45 52 55 60 68 70 71 60 46 49 48 40 43 56 75 87 68 60 51 66 72 69 59 47 37 36 33 31 47
58 63 59 62 60 65 77 90 84 75 56 44 47 47 52 56 83 92 97 88 69 73 62 76 90 124 118 88 108 88 69 70 59
65 74 66 59 73 75 77 80 88 60 31 44 49 79 58 89 89 85 79 53 112 104 117 111 120 95 118 180 169 150 76 60 57
86 81 84 86 89 88 80 67 63 62 90 82 80 22 19 70 93 95 98 67 48 90 139 153 169 158 181 204 187 239 141 56 53
98 98 79 74 76 81 80 81 69 54 113 104 54 54 64 79 60 78 75 79 79 77 83 97 121 138 182 171 157 65 60 27 46
87 82 76 77 78 79 102 15 115 105 75 47 87 68 69 82 96 94 96 59 38 57 63 98 112 99 130 109 72 69 67 52 29
Wind_Speed
34 32 31 32 35 36 38 41 41 40 38 36 34 34 40 44 44 46 46 47 50 52 53 54 54 54 55 55 56 57 57 57 57
31 30 31 34 36 37 38 40 41 40 37 36 35 35 37 42 44 44 45 47 49 50 52 53 53 54 54 54 55 55 55 56 56
31 30 31 33 36 36 37 38 39 39 36 35 33 33 37 40 41 43 44 45 47 49 50 51 52 52 52 52 53 53 54 55 54
31 30 31 31 35 35 36 36 35 34 33 32 31 31 30 36 38 41 42 43 45 47 48 49 50 50 50 50 50 51 52 53 52
27 28 27 27 28 31 31 32 32 32 32 31 31 32 33 34 36 38 39 41 42 44 45 47 48 48 48 48 48 48 48 50 50
26 25 26 24 25 27 29 31 31 30 29 29 29 30 31 32 34 35 37 38 39 41 43 45 46 46 47 47 46 46 46 47 48
23 23 24 22 20 22 24 27 30 29 26 26 27 28 29 31 32 33 34 35 37 38 40 41 42 44 44 44 44 44 44 44 45
16 17 16 16 16 16 19 23 23 22 23 24 25 26 28 29 30 30 31 32 34 35 36 38 39 41 41 42 42 41 42 42 43
19 15 14 13 13 13 15 16 18 20 21 23 25 25 26 27 29 28 29 30 31 32 33 35 36 38 39 39 39 39 39 39 40
19 16 16 13 9 10 10 12 15 17 20 22 25 26 26 27 28 28 25 27 28 29 30 31 32 35 36 36 36 36 36 36 36
17 15 11 7 7 6 8 11 14 17 21 23 24 26 26 27 27 27 26 24 25 27 27 28 30 31 32 33 33 33 33 32 32
16 13 8 4 1 5 9 12 16 19 22 24 25 26 28 28 28 27 27 25 22 24 25 27 27 27 29 30 30 30 29 27 27
17 13 8 6 5 7 11 13 17 21 24 26 27 29 30 30 29 28 27 26 27 22 22 25 29 27 27 28 27 28 25 23 23
22 18 12 6 7 9 13 15 19 23 28 30 31 32 33 32 31 30 28 27 26 25 23 21 28 31 31 27 28 28 22 19 18
23 20 14 11 11 12 14 17 20 26 30 33 36 35 33 32 33 32 29 30 28 25 29 28 29 30 26 26 28 32 33 27 18
25 21 18 17 18 16 15 19 22 28 31 35 35 35 37 40 40 40 37 31 26 24 25 32 32 32 29 29 32 36 38 37 36
27 25 25 22 19 17 17 20 27 28 27 33 36 43 40 38 35 38 39 36 31 26 28 30 32 30 29 30 34 37 42 41 37
30 29 25 22 21 20 22 21 21 25 27 26 37 43 43 42 37 38 37 36 24 26 34 33 32 33 32 30 33 40 42 42 40
35 33 25 23 23 23 22 21 19 25 29 29 31 33 43 46 51 32 35 33 30 31 28 30 33 36 34 32 36 33 42 41 39
33 30 31 26 20 19 17 5 13 15 32 31 37 19 22 29 28 37 36 33 27 27 32 35 40 38 40 39 38 40 42 42 42
Wind_Direction
103 97 89 85 82 79 77 76 74 69 64 58 52 49 55 55 49 50 46 45 49 50 52 50 49 46 44 42 44 45 46 47 47
105 98 93 90 87 82 78 77 76 71 64 60 54 51 46 53 50 48 46 49 52 52 52 51 50 47 45 44 45 44 46 47 46
110 101 97 92 90 86 81 79 76 71 64 58 51 47 48 48 46 45 46 48 50 51 52 51 50 47 46 44 43 45 47 47 46
114 106 100 93 94 88 82 77 73 67 61 54 48 41 28 42 42 46 47 48 49 50 50 50 49 47 46 44 43 45 45 47 45
117 109 101 94 90 88 81 77 69 64 58 52 47 45 40 37 38 37 42 45 44 45 46 46 46 45 44 44 44 42 43 48 49
121 113 106 97 90 86 82 78 71 62 52 46 45 39 31 33 32 35 39 40 40 41 41 41 41 41 42 42 41 40 41 42 45
125 120 111 102 89 81 77 75 75 69 48 39 37 24 29 26 28 33 37 36 35 35 34 34 36 37 38 38 39 39 39 41 41
138 136 121 105 93 74 71 73 60 45 36 33 24 24 20 22 23 29 29 33 31 29 29 29 31 33 34 35 37 37 37 38 41
145 150 132 114 97 79 69 54 44 36 26 21 16 16 17 19 20 31 30 26 25 24 24 24 25 25 26 28 31 32 33 36 35
151 146 132 120 99 80 50 32 28 21 16 10 6 5 10 11 13 13 25 22 21 21 20 20 21 20 22 23 24 23 27 29 30
163 155 152 133 98 49 21 12 13 3 355 356 360 1 2 1 2 1 8 12 10 10 12 13 12 13 16 18 20 20 22 24 24
182 172 179 183 13 15 351 349 350 354 354 352 352 353 352 352 352 352 352 357 358 358 0 359 1 4 5 10 14 12 13 18 20
204 208 206 237 285 320 329 337 339 339 342 345 346 344 344 343 344 346 346 347 347 351 349 352 348 352 358 0 4 5 8 11 15
225 234 240 242 289 314 324 331 332 334 334 336 338 338 340 342 341 339 338 339 344 345 346 346 339 338 346 354 355 360 8 9 7
232 243 250 262 288 307 321 324 328 328 331 330 329 334 338 341 338 337 336 334 334 336 333 337 335 333 345 353 354 356 358 3 1
236 248 257 271 285 299 312 319 323 322 328 330 333 335 334 332 334 334 333 333 338 341 339 332 334 338 337 344 342 341 345 349 352
239 251 262 270 284 296 306 312 316 321 328 330 332 329 332 338 343 346 341 337 344 344 338 336 336 337 339 340 338 337 335 338 343
243 253 264 273 283 292 299 309 317 321 323 335 333 331 330 336 344 345 345 342 357 347 330 331 333 333 333 332 331 330 333 332 334
247 255 265 274 284 291 297 304 313 318 323 324 334 338 329 329 328 2 347 352 345 343 344 337 335 331 331 335 331 333 328 330 331
249 257 264 270 286 293 291 325 316 322 314 323 324 10 6 355 353 346 350 351 350 346 334 330 328 328 326 329 331 324 324 325 323